Location: Kaseke
(18.0171°S, 31.0526°E)
Time: 12:38:42
(UTC+00:00)

NOSS 3-1 (C) - Pass Details

Date: 14 July 2020
Orbit: 752 x 1456 km, 63.4° (Epoch: 15 June)

Event Time Altitude Azimuth Distance (km) Brightness Sun altitude
Rises 03:30:26 0° 196° (SSW) 3,504 6.1 -13.5°
Reaches altitude 10° 03:33:12 10° 188° (S) 2,473 5.4 -12.9°
Maximum altitude 03:38:26 40° 119° (ESE) 1,143 4.3 -11.8°
Drops below altitude 10° 03:43:14 10° 49° (NE) 2,273 6.7 -10.7°
Sets 03:45:40 0° 41° (NE) 3,187 7.4 -10.1°
